| time (UTC) | temp C | wind direction | speed KPH | gust KPH | rain 1hr cm | rain 24hr cm | rain mn cm | humidity % | barometer mb |
| 20260506044007 | 9 | 3 | 0.0 | 1.6 | 0.00 | 0.13 | 0.13 | 77 | 1010.4 |
| 20260506043510 | 9 | 3 | 0.0 | 1.6 | 0.00 | 0.13 | 0.13 | 79 | 1010.2 |
| 20260506043010 | 9 | 3 | 0.0 | 1.6 | 0.00 | 0.13 | 0.13 | 78 | 1010.4 |
| 20260506042505 | 9 | 79 | 0.0 | 0.0 | 0.00 | 0.13 | 0.13 | 69 | 1010.3 |
| 20260506041514 | 9 | 79 | 0.0 | 4.8 | 0.00 | 0.15 | 0.13 | 77 | 1010.2 |
| 20260506041007 | 9 | 79 | 1.6 | 4.8 | 0.00 | 0.15 | 0.13 | 75 | 1010.4 |
| 20260506035508 | 9 | 221 | 0.0 | 6.4 | 0.00 | 0.15 | 0.13 | 77 | 1010.8 |
| 20260506035009 | 9 | 137 | 3.2 | 6.4 | 0.00 | 0.15 | 0.13 | 80 | 1010.4 |
| 20260506034522 | 9 | 127 | 3.2 | 6.4 | 0.00 | 0.15 | 0.13 | 83 | 1010.5 |
| 20260506034005 | 9 | 258 | 0.0 | 0.0 | 0.00 | 0.18 | 0.13 | 86 | 1010.7 |
| 20260506033507 | 9 | 281 | 0.0 | 1.6 | 0.00 | 0.20 | 0.13 | 86 | 1010.7 |
| 20260506033027 | 9 | 281 | 0.0 | 1.6 | 0.00 | 0.23 | 0.13 | 86 | 1010.7 |
| 20260506032506 | 9 | 290 | 0.0 | 0.0 | 0.00 | 0.23 | 0.13 | 84 | 1010.7 |
| 20260506032009 | 9 | 290 | 0.0 | 0.0 | 0.00 | 0.25 | 0.13 | 82 | 1010.9 |
| 20260506031006 | 9 | 290 | 0.0 | 0.0 | 0.00 | 0.36 | 0.13 | 83 | 1011.0 |
| 20260506030504 | 9 | 290 | 0.0 | 0.0 | 0.00 | 0.38 | 0.13 | 83 | 1011.0 |
| 20260506025504 | 9 | 290 | 0.0 | 0.0 | 0.00 | 0.48 | 0.13 | 82 | 1010.9 |
| 20260506025008 | 9 | 290 | 0.0 | 0.0 | 0.00 | 0.64 | 0.13 | 80 | 1010.8 |
| 20260506024527 | 9 | 301 | 0.0 | 0.0 | 0.00 | 0.79 | 0.13 | 81 | 1010.4 |
| 20260506024008 | 9 | 43 | 0.0 | 0.0 | 0.00 | 1.02 | 0.13 | 82 | 1010.4 |
| 20260506023508 | 9 | 85 | 0.0 | 0.0 | 0.00 | 1.02 | 0.13 | 81 | 1010.3 |
| 20260506023023 | 9 | 85 | 0.0 | 0.0 | 0.00 | 1.02 | 0.13 | 80 | 1010.2 |
| 20260506022509 | 9 | 85 | 0.0 | 0.0 | 0.00 | 1.02 | 0.13 | 80 | 1010.0 |
| 20260506022009 | 9 | 85 | 0.0 | 0.0 | 0.00 | 1.02 | 0.13 | 80 | 1009.9 |
| 20260506021522 | 9 | 85 | 0.0 | 0.0 | 0.00 | 1.02 | 0.13 | 79 | 1009.9 |
| 20260506021006 | 9 | 84 | 0.0 | 0.0 | 0.00 | 1.02 | 0.13 | 79 | 1009.9 |
| 20260506020506 | 9 | 84 | 0.0 | 1.6 | 0.00 | 1.02 | 0.13 | 80 | 1009.9 |
| 20260506015504 | 9 | 352 | 0.0 | 1.6 | 0.00 | 1.02 | 0.13 | 81 | 1009.9 |
| 20260506015007 | 9 | 352 | 0.0 | 0.0 | 0.00 | 1.02 | 0.13 | 83 | 1009.9 |
| 20260506014005 | 9 | 352 | 0.0 | 0.0 | 0.00 | 1.02 | 0.13 | 83 | 1009.8 |
| 20260506013510 | 10 | 352 | 0.0 | 0.0 | 0.00 | 1.02 | 0.13 | 83 | 1009.7 |
| 20260506013021 | 10 | 352 | 0.0 | 0.0 | 0.00 | 1.02 | 0.13 | 81 | 1009.4 |
| 20260506012508 | 9 | 352 | 0.0 | 0.0 | 0.00 | 1.02 | 0.13 | 79 | 1009.4 |
| 20260506012010 | 10 | 352 | 0.0 | 1.6 | 0.00 | 1.02 | 0.13 | 78 | 1009.3 |
| 20260506011523 | 10 | 352 | 0.0 | 1.6 | 0.00 | 1.02 | 0.13 | 78 | 1009.2 |
| 20260506011006 | 10 | 352 | 0.0 | 1.6 | 0.00 | 1.02 | 0.13 | 77 | 1009.1 |
| 20260506010511 | 10 | 352 | 0.0 | 1.6 | 0.00 | 1.02 | 0.13 | 76 | 1009.1 |
| 20260506010046 | 10 | 352 | 0.0 | 1.6 | 0.00 | 1.02 | 0.13 | 74 | 1009.1 |
| 20260506005509 | 10 | 20 | 0.0 | 0.0 | 0.00 | 1.02 | 0.13 | 75 | 1009.1 |
| 20260506005006 | 10 | 20 | 0.0 | 0.0 | 0.00 | 1.02 | 0.13 | 75 | 1008.9 |
| 20260506004006 | 10 | 20 | 0.0 | 0.0 | 0.00 | 1.02 | 0.13 | 74 | 1008.7 |
| 20260506003506 | 10 | 20 | 0.0 | 0.0 | 0.00 | 1.02 | 0.13 | 73 | 1008.7 |
| 20260506002509 | 10 | 20 | 0.0 | 1.6 | 0.00 | 1.02 | 0.13 | 71 | 1008.5 |
| 20260506002008 | 10 | 20 | 0.0 | 1.6 | 0.00 | 1.02 | 0.13 | 72 | 1008.5 |
| 20260506001519 | 10 | 20 | 0.0 | 1.6 | 0.00 | 1.02 | 0.13 | 71 | 1008.7 |
| 20260506001009 | 10 | 20 | 0.0 | 1.6 | 0.00 | 1.02 | 0.13 | 71 | 1008.6 |
| 20260506000508 | 10 | 15 | 0.0 | 3.2 | 0.00 | 1.02 | 0.13 | 70 | 1008.7 |
| 20260506000024 | 10 | 15 | 0.0 | 3.2 | 0.00 | 1.02 | 0.13 | 69 | 1008.9 |
| 20260505235509 | 10 | 3 | 0.0 | 3.2 | 0.00 | 1.02 | 0.13 | 69 | 1009.0 |
| 20260505235011 | 10 | 67 | 0.0 | 3.2 | 0.00 | 1.02 | 0.13 | 68 | 1009.1 |
| 20260505234522 | 10 | 31 | 1.6 | 3.2 | 0.00 | 1.02 | 0.13 | 71 | 1009.1 |
| 20260505234009 | 10 | 326 | 1.6 | 3.2 | 0.00 | 1.02 | 0.13 | 74 | 1009.2 |
| 20260505233507 | 10 | 289 | 0.0 | 3.2 | 0.00 | 1.02 | 0.13 | 79 | 1009.1 |
| 20260505233014 | 10 | 345 | 0.0 | 3.2 | 0.00 | 1.02 | 0.13 | 80 | 1009.2 |
| 20260505232507 | 10 | 268 | 0.0 | 1.6 | 0.00 | 1.02 | 0.13 | 80 | 1009.2 |
| 20260505232005 | 10 | 355 | 0.0 | 3.2 | 0.00 | 1.02 | 0.13 | 78 | 1008.9 |
| 20260505231507 | 10 | 294 | 0.0 | 3.2 | 0.00 | 1.02 | 0.13 | 77 | 1008.9 |
| 20260505231004 | 10 | 305 | 1.6 | 4.8 | 0.00 | 1.02 | 0.13 | 77 | 1008.8 |
| 20260505230503 | 10 | 310 | 0.0 | 4.8 | 0.00 | 1.02 | 0.13 | 77 | 1008.7 |
| 20260505230003 | 10 | 269 | 0.0 | 3.2 | 0.00 | 1.02 | 0.13 | 78 | 1008.9 |
| 20260505225504 | 10 | 268 | 0.0 | 3.2 | 0.00 | 1.02 | 0.13 | 77 | 1008.8 |
| 20260505225003 | 10 | 308 | 1.6 | 3.2 | 0.00 | 1.02 | 0.13 | 75 | 1008.8 |
| 20260505224509 | 10 | 34 | 1.6 | 3.2 | 0.00 | 1.02 | 0.13 | 76 | 1008.8 |
| 20260505224004 | 10 | 255 | 1.6 | 4.8 | 0.00 | 1.02 | 0.13 | 75 | 1008.6 |
| 20260505223503 | 10 | 307 | 1.6 | 4.8 | 0.00 | 1.02 | 0.13 | 75 | 1008.7 |
| 20260505223014 | 10 | 319 | 0.0 | 3.2 | 0.00 | 1.02 | 0.13 | 76 | 1008.8 |
| 20260505222508 | 10 | 295 | 0.0 | 3.2 | 0.00 | 1.02 | 0.13 | 77 | 1008.5 |
| 20260505222007 | 10 | 295 | 0.0 | 3.2 | 0.00 | 1.02 | 0.13 | 74 | 1008.4 |
| 20260505221516 | 10 | 313 | 1.6 | 3.2 | 0.00 | 1.02 | 0.13 | 74 | 1008.5 |
| 20260505221009 | 10 | 20 | 1.6 | 3.2 | 0.00 | 1.02 | 0.13 | 74 | 1008.7 |
| 20260505220507 | 10 | 285 | 1.6 | 4.8 | 0.00 | 1.02 | 0.13 | 73 | 1008.8 |
| 20260505220004 | 10 | 90 | 0.0 | 4.8 | 0.00 | 1.02 | 0.13 | 73 | 1008.9 |
| 20260505215505 | 10 | 336 | 0.0 | 4.8 | 0.00 | 1.02 | 0.13 | 74 | 1008.9 |
| 20260505215003 | 10 | 281 | 0.0 | 3.2 | 0.00 | 1.02 | 0.13 | 72 | 1009.1 |
| 20260505214508 | 10 | 271 | 0.0 | 3.2 | 0.00 | 1.02 | 0.13 | 72 | 1009.2 |
| 20260505214003 | 10 | 330 | 1.6 | 4.8 | 0.00 | 1.02 | 0.13 | 73 | 1009.2 |
| 20260505213502 | 10 | 322 | 0.0 | 4.8 | 0.00 | 1.02 | 0.13 | 75 | 1009.3 |
| 20260505213020 | 10 | 337 | 0.0 | 1.6 | 0.00 | 1.02 | 0.13 | 73 | 1009.4 |
| 20260505212506 | 10 | 31 | 0.0 | 3.2 | 0.00 | 1.02 | 0.13 | 75 | 1009.5 |
| 20260505212004 | 10 | 344 | 0.0 | 3.2 | 0.00 | 1.02 | 0.13 | 73 | 1009.5 |
| 20260505211512 | 10 | 27 | 0.0 | 3.2 | 0.03 | 1.02 | 0.13 | 75 | 1009.5 |
| 20260505211006 | 10 | 287 | 0.0 | 3.2 | 0.03 | 1.02 | 0.13 | 76 | 1009.5 |
| 20260505210507 | 10 | 310 | 0.0 | 3.2 | 0.03 | 1.02 | 0.13 | 76 | 1009.8 |
| 20260505210018 | 10 | 300 | 1.6 | 3.2 | 0.03 | 1.02 | 0.13 | 75 | 1010.0 |
| 20260505205508 | 10 | 291 | 0.0 | 4.8 | 0.03 | 1.02 | 0.13 | 76 | 1009.9 |
| 20260505205008 | 10 | 65 | 0.0 | 4.8 | 0.03 | 1.02 | 0.13 | 73 | 1010.0 |
| 20260505204504 | 10 | 56 | 0.0 | 6.4 | 0.05 | 1.02 | 0.13 | 74 | 1010.0 |
| 20260505204005 | 10 | 270 | 0.0 | 6.4 | 0.05 | 1.02 | 0.13 | 74 | 1010.1 |
| 20260505203503 | 10 | 262 | 0.0 | 4.8 | 0.08 | 1.02 | 0.13 | 75 | 1010.1 |
| 20260505203005 | 10 | 55 | 1.6 | 4.8 | 0.08 | 1.02 | 0.13 | 75 | 1010.2 |
| 20260505202503 | 10 | 288 | 0.0 | 3.2 | 0.10 | 1.02 | 0.13 | 74 | 1010.2 |
| 20260505202006 | 10 | 340 | 1.6 | 3.2 | 0.10 | 1.02 | 0.13 | 75 | 1010.4 |
| 20260505201514 | 10 | 347 | 1.6 | 6.4 | 0.08 | 0.99 | 0.10 | 74 | 1010.4 |
| 20260505201004 | 10 | 34 | 0.0 | 6.4 | 0.08 | 0.99 | 0.10 | 76 | 1010.4 |
| 20260505200508 | 9 | 316 | 1.6 | 4.8 | 0.08 | 0.99 | 0.10 | 73 | 1010.3 |
| 20260505200018 | 9 | 333 | 0.0 | 4.8 | 0.08 | 0.99 | 0.10 | 76 | 1010.4 |
| 20260505195505 | 9 | 12 | 1.6 | 4.8 | 0.08 | 0.99 | 0.10 | 75 | 1010.3 |
| 20260505195007 | 10 | 316 | 1.6 | 6.4 | 0.08 | 0.99 | 0.10 | 76 | 1010.4 |
| 20260505194520 | 10 | 326 | 1.6 | 6.4 | 0.05 | 0.97 | 0.08 | 77 | 1010.4 |
| 20260505194008 | 10 | 347 | 1.6 | 8.0 | 0.05 | 0.97 | 0.08 | 78 | 1010.4 |
| 20260505193509 | 10 | 326 | 3.2 | 8.0 | 0.03 | 0.94 | 0.05 | 74 | 1010.4 |
| 20260505193004 | 10 | 347 | 3.2 | 6.4 | 0.03 | 0.94 | 0.05 | 73 | 1010.4 |
| 20260505192505 | 11 | 319 | 3.2 | 6.4 | 0.00 | 0.91 | 0.03 | 68 | 1010.6 |
| 20260505192005 | 11 | 289 | 1.6 | 8.0 | 0.00 | 0.91 | 0.03 | 67 | 1010.5 |
| 20260505191508 | 11 | 327 | 3.2 | 8.0 | 0.00 | 0.91 | 0.03 | 64 | 1010.4 |
| 20260505191005 | 11 | 38 | 3.2 | 8.0 | 0.00 | 0.91 | 0.03 | 62 | 1010.3 |
| 20260505190507 | 11 | 262 | 3.2 | 9.7 | 0.00 | 0.91 | 0.03 | 63 | 1010.2 |
| 20260505190022 | 11 | 360 | 3.2 | 9.7 | 0.00 | 0.91 | 0.03 | 66 | 1010.1 |
| 20260505185507 | 12 | 311 | 1.6 | 9.7 | 0.00 | 0.91 | 0.03 | 71 | 1010.0 |
| 20260505185005 | 12 | 153 | 1.6 | 8.0 | 0.00 | 0.91 | 0.03 | 70 | 1010.1 |
| 20260505184518 | 12 | 294 | 1.6 | 8.0 | 0.00 | 0.91 | 0.03 | 70 | 1010.0 |
| 20260505184007 | 12 | 11 | 1.6 | 6.4 | 0.00 | 0.91 | 0.03 | 74 | 1010.0 |
| 20260505183508 | 12 | 229 | 1.6 | 6.4 | 0.00 | 0.91 | 0.03 | 73 | 1010.0 |
| 20260505183020 | 12 | 259 | 1.6 | 6.4 | 0.00 | 0.91 | 0.03 | 74 | 1010.1 |
| 20260505182507 | 12 | 213 | 1.6 | 6.4 | 0.00 | 0.91 | 0.03 | 74 | 1010.1 |
| 20260505182009 | 12 | 345 | 1.6 | 6.4 | 0.00 | 0.91 | 0.03 | 73 | 1010.1 |
| 20260505181506 | 12 | 101 | 3.2 | 6.4 | 0.00 | 0.91 | 0.03 | 75 | 1009.9 |
| 20260505181004 | 12 | 278 | 1.6 | 6.4 | 0.00 | 0.91 | 0.03 | 74 | 1010.0 |
| 20260505180503 | 12 | 262 | 1.6 | 6.4 | 0.00 | 0.91 | 0.03 | 74 | 1010.0 |
| 20260505180011 | 12 | 289 | 1.6 | 9.7 | 0.00 | 0.91 | 0.03 | 75 | 1010.0 |
| 20260505175504 | 12 | 4 | 1.6 | 9.7 | 0.00 | 0.91 | 0.03 | 73 | 1010.0 |
| 20260505175006 | 12 | 340 | 3.2 | 6.4 | 0.00 | 0.91 | 0.03 | 73 | 1010.0 |
| 20260505174514 | 12 | 70 | 3.2 | 9.7 | 0.00 | 0.91 | 0.03 | 74 | 1010.0 |
| 20260505174007 | 12 | 226 | 1.6 | 9.7 | 0.00 | 0.91 | 0.03 | 79 | 1010.2 |
| 20260505173507 | 11 | 42 | 3.2 | 9.7 | 0.00 | 0.91 | 0.03 | 78 | 1010.3 |
| 20260505173023 | 11 | 288 | 1.6 | 6.4 | 0.00 | 0.91 | 0.03 | 75 | 1010.3 |
| 20260505172506 | 11 | 281 | 1.6 | 6.4 | 0.00 | 0.91 | 0.03 | 77 | 1010.1 |
| 20260505172007 | 10 | 58 | 3.2 | 6.4 | 0.00 | 0.91 | 0.03 | 78 | 1010.2 |
| 20260505171529 | 10 | 317 | 1.6 | 9.7 | 0.00 | 0.91 | 0.03 | 79 | 1010.0 |
| 20260505171009 | 10 | 63 | 4.8 | 9.7 | 0.00 | 0.91 | 0.03 | 77 | 1010.0 |
| 20260505170509 | 10 | 343 | 4.8 | 9.7 | 0.00 | 0.91 | 0.03 | 78 | 1009.8 |
| 20260505170009 | 10 | 336 | 3.2 | 9.7 | 0.00 | 0.91 | 0.03 | 78 | 1009.9 |
| 20260505165506 | 10 | 254 | 1.6 | 6.4 | 0.00 | 0.91 | 0.03 | 78 | 1010.1 |
| 20260505165004 | 10 | 44 | 1.6 | 4.8 | 0.00 | 0.91 | 0.03 | 77 | 1010.3 |
| 20260505164509 | 10 | 233 | 0.0 | 6.4 | 0.00 | 0.91 | 0.03 | 79 | 1010.2 |
| 20260505164004 | 10 | 328 | 0.0 | 8.0 | 0.00 | 0.91 | 0.03 | 79 | 1010.2 |
| 20260505163504 | 10 | 56 | 4.8 | 9.7 | 0.00 | 0.91 | 0.03 | 80 | 1010.0 |
| 20260505163012 | 10 | 330 | 4.8 | 9.7 | 0.00 | 0.91 | 0.03 | 80 | 1010.0 |
| 20260505162505 | 10 | 55 | 4.8 | 9.7 | 0.00 | 0.91 | 0.03 | 79 | 1010.0 |
| 20260505162008 | 10 | 63 | 3.2 | 8.0 | 0.00 | 0.91 | 0.03 | 81 | 1009.8 |
| 20260505161519 | 10 | 44 | 3.2 | 8.0 | 0.00 | 0.91 | 0.03 | 80 | 1009.7 |
| 20260505161007 | 10 | 68 | 3.2 | 6.4 | 0.00 | 0.91 | 0.03 | 82 | 1009.6 |
| 20260505160515 | 10 | 76 | 3.2 | 11.3 | 0.00 | 0.91 | 0.03 | 80 | 1009.5 |
| 20260505153014 | 10 | 145 | 4.8 | 9.7 | 0.00 | 0.91 | 0.03 | 79 | 1009.5 |
| 20260505152504 | 10 | 264 | 1.6 | 9.7 | 0.00 | 0.91 | 0.03 | 80 | 1009.6 |
| 20260505152007 | 10 | 39 | 6.4 | 12.9 | 0.00 | 0.91 | 0.03 | 78 | 1009.4 |
| 20260505151515 | 10 | 44 | 3.2 | 12.9 | 0.00 | 0.91 | 0.03 | 80 | 1009.3 |
| 20260505151004 | 9 | 45 | 4.8 | 17.7 | 0.00 | 0.91 | 0.03 | 81 | 1009.1 |
| 20260505150507 | 9 | 68 | 11.3 | 17.7 | 0.00 | 0.91 | 0.03 | 81 | 1008.8 |
| 20260505140505 | 8 | 61 | 3.2 | 9.7 | 0.00 | 0.91 | 0.03 | 80 | 1009.3 |
| 20260505125008 | 8 | 351 | 3.2 | 12.9 | 0.00 | 0.91 | 0.03 | 82 | 1009.4 |
| 20260505124521 | 8 | 259 | 4.8 | 9.7 | 0.00 | 0.91 | 0.03 | 82 | 1009.4 |
| 20260505124009 | 9 | 296 | 3.2 | 6.4 | 0.00 | 0.91 | 0.03 | 82 | 1009.6 |
| 20260505123507 | 9 | 302 | 3.2 | 6.4 | 0.00 | 0.91 | 0.03 | 83 | 1009.6 |
| 20260505123005 | 9 | 316 | 3.2 | 8.0 | 0.00 | 0.91 | 0.03 | 82 | 1009.5 |
| 20260505122504 | 9 | 315 | 3.2 | 8.0 | 0.00 | 0.91 | 0.03 | 82 | 1009.2 |
| 20260505122004 | 9 | 328 | 1.6 | 9.7 | 0.00 | 0.91 | 0.03 | 82 | 1008.9 |
| 20260505121510 | 9 | 325 | 3.2 | 9.7 | 0.03 | 0.91 | 0.03 | 81 | 1008.8 |
| 20260505121003 | 9 | 326 | 1.6 | 6.4 | 0.03 | 0.91 | 0.03 | 83 | 1008.7 |
| 20260505120504 | 9 | 324 | 0.0 | 6.4 | 0.03 | 0.91 | 0.03 | 83 | 1008.5 |
| 20260505120038 | 9 | 356 | 1.6 | 6.4 | 0.03 | 0.91 | 0.03 | 83 | 1008.3 |
| 20260505115505 | 9 | 334 | 3.2 | 8.0 | 0.03 | 0.91 | 0.03 | 83 | 1008.3 |
| 20260505115006 | 9 | 341 | 3.2 | 8.0 | 0.03 | 0.91 | 0.03 | 83 | 1008.0 |
| 20260505114519 | 9 | 278 | 3.2 | 6.4 | 0.03 | 0.91 | 0.03 | 83 | 1007.7 |
| 20260505114008 | 9 | 34 | 1.6 | 6.4 | 0.03 | 0.91 | 0.03 | 83 | 1007.6 |
| 20260505113506 | 9 | 12 | 1.6 | 6.4 | 0.03 | 0.91 | 0.03 | 83 | 1007.6 |
| 20260505113024 | 9 | 294 | 1.6 | 4.8 | 0.03 | 0.91 | 0.03 | 83 | 1007.6 |
| 20260505112507 | 9 | 326 | 1.6 | 4.8 | 0.03 | 0.91 | 0.03 | 83 | 1007.6 |
| 20260505112009 | 10 | 216 | 3.2 | 6.4 | 0.03 | 0.91 | 0.03 | 83 | 1007.4 |
| 20260505111526 | 10 | 317 | 3.2 | 6.4 | 0.00 | 0.89 | 0.00 | 81 | 1007.3 |
| 20260505111009 | 10 | 330 | 1.6 | 6.4 | 0.00 | 0.89 | 0.00 | 82 | 1007.2 |
| 20260505110507 | 10 | 337 | 1.6 | 6.4 | 0.00 | 0.89 | 0.00 | 82 | 1007.3 |
| 20260505102010 | 10 | 326 | 0.0 | 3.2 | 0.00 | 0.89 | 0.00 | 82 | 1007.0 |
| 20260505101527 | 10 | 324 | 0.0 | 3.2 | 0.00 | 0.89 | 0.00 | 84 | 1006.9 |
| 20260505101010 | 10 | 324 | 0.0 | 3.2 | 0.00 | 0.89 | 0.00 | 81 | 1006.4 |
| 20260505100508 | 10 | 83 | 0.0 | 4.8 | 0.00 | 0.89 | 0.00 | 81 | 1006.0 |
| 20260505100029 | 10 | 37 | 1.6 | 4.8 | 0.00 | 0.89 | 0.00 | 81 | 1006.0 |
| 20260505095504 | 10 | 11 | 0.0 | 8.0 | 0.00 | 0.89 | 0.00 | 82 | 1006.0 |
| 20260505095008 | 11 | 306 | 1.6 | 8.0 | 0.00 | 0.89 | 0.00 | 82 | 1006.1 |
| 20260505094516 | 11 | 335 | 1.6 | 4.8 | 0.00 | 0.89 | 0.00 | 83 | 1006.2 |
| 20260505094006 | 11 | 326 | 1.6 | 4.8 | 0.00 | 0.89 | 0.00 | 83 | 1006.4 |
| 20260505093506 | 11 | 338 | 0.0 | 4.8 | 0.00 | 0.89 | 0.00 | 84 | 1006.4 |
| 20260505093018 | 11 | 315 | 1.6 | 4.8 | 0.00 | 0.89 | 0.00 | 82 | 1006.5 |
| 20260505092507 | 11 | 328 | 0.0 | 3.2 | 0.00 | 0.89 | 0.00 | 80 | 1006.1 |
| 20260505092008 | 11 | 278 | 0.0 | 4.8 | 0.00 | 0.89 | 0.00 | 80 | 1006.4 |
| 20260505091527 | 11 | 333 | 1.6 | 4.8 | 0.00 | 0.89 | 0.00 | 80 | 1006.7 |
| 20260505091004 | 11 | 326 | 1.6 | 4.8 | 0.00 | 0.89 | 0.00 | 81 | 1006.6 |
| 20260505090507 | 11 | 311 | 1.6 | 1.6 | 0.00 | 0.89 | 0.00 | 81 | 1006.6 |
| 20260505090038 | 12 | 287 | 0.0 | 3.2 | 0.00 | 0.89 | 0.00 | 83 | 1006.8 |
| 20260505085515 | 12 | 286 | 0.0 | 3.2 | 0.00 | 0.89 | 0.00 | 81 | 1006.6 |
| 20260505085010 | 12 | 313 | 1.6 | 3.2 | 0.00 | 0.89 | 0.00 | 81 | 1006.6 |
| 20260505084525 | 12 | 306 | 1.6 | 3.2 | 0.00 | 0.89 | 0.00 | 81 | 1006.4 |
| 20260505084004 | 12 | 295 | 0.0 | 3.2 | 0.00 | 0.89 | 0.00 | 82 | 1006.4 |
| 20260505083505 | 12 | 315 | 0.0 | 4.8 | 0.00 | 0.89 | 0.00 | 84 | 1006.3 |
| 20260505083015 | 12 | 301 | 0.0 | 4.8 | 0.00 | 0.89 | 0.00 | 88 | 1006.1 |
| 20260505082504 | 12 | 294 | 1.6 | 4.8 | 0.00 | 0.89 | 0.00 | 88 | 1005.8 |
| 20260505082007 | 12 | 253 | 0.0 | 3.2 | 0.00 | 0.89 | 0.00 | 90 | 1005.7 |
| 20260505081521 | 12 | 253 | 1.6 | 3.2 | 0.00 | 0.89 | 0.00 | 90 | 1005.6 |
| 20260505081005 | 12 | 250 | 0.0 | 3.2 | 0.00 | 0.89 | 0.00 | 90 | 1005.4 |
| 20260505080508 | 12 | 173 | 0.0 | 0.0 | 0.00 | 0.89 | 0.00 | 90 | 1005.1 |
| 20260505080021 | 12 | 173 | 0.0 | 0.0 | 0.00 | 0.89 | 0.00 | 90 | 1004.9 |
| 20260505075506 | 12 | 173 | 0.0 | 0.0 | 0.00 | 0.89 | 0.00 | 91 | 1004.8 |
| 20260505075007 | 12 | 173 | 0.0 | 0.0 | 0.00 | 0.89 | 0.00 | 91 | 1004.7 |
| 20260505074524 | 12 | 173 | 0.0 | 4.8 | 0.00 | 0.89 | 0.00 | 92 | 1004.9 |
| 20260505074007 | 12 | 173 | 0.0 | 6.4 | 0.00 | 0.89 | 0.00 | 92 | 1004.9 |
| 20260505073508 | 12 | 216 | 3.2 | 6.4 | 0.00 | 0.89 | 0.00 | 92 | 1005.0 |
| 20260505073043 | 12 | 221 | 6.4 | 6.4 | 0.00 | 0.89 | 0.00 | 92 | 1005.0 |
| 20260505072505 | 12 | 240 | 3.2 | 6.4 | 0.00 | 0.89 | 0.00 | 91 | 1004.9 |
| 20260505072007 | 13 | 243 | 3.2 | 6.4 | 0.00 | 0.89 | 0.00 | 91 | 1005.0 |
| 20260505071519 | 13 | 264 | 3.2 | 6.4 | 0.00 | 0.89 | 0.00 | 91 | 1004.8 |
| 20260505071004 | 13 | 262 | 4.8 | 8.0 | 0.00 | 0.89 | 0.00 | 91 | 1004.5 |
| 20260505070509 | 13 | 255 | 4.8 | 8.0 | 0.00 | 0.89 | 0.00 | 91 | 1004.3 |
| 20260505070022 | 13 | 270 | 4.8 | 8.0 | 0.00 | 0.89 | 0.00 | 91 | 1004.3 |
| 20260505065508 | 13 | 266 | 4.8 | 6.4 | 0.00 | 0.89 | 0.00 | 90 | 1004.2 |
| 20260505065006 | 13 | 228 | 4.8 | 8.0 | 0.00 | 0.89 | 0.00 | 90 | 1004.0 |
| 20260505064536 | 13 | 217 | 4.8 | 9.7 | 0.00 | 0.89 | 0.00 | 89 | 1004.0 |
| 20260505064007 | 13 | 225 | 6.4 | 11.3 | 0.00 | 0.89 | 0.00 | 88 | 1003.9 |
| 20260505063509 | 13 | 249 | 8.0 | 11.3 | 0.00 | 0.89 | 0.00 | 89 | 1004.2 |
| 20260505063026 | 13 | 234 | 9.7 | 11.3 | 0.00 | 0.89 | 0.00 | 90 | 1004.2 |
| 20260505062509 | 13 | 255 | 6.4 | 8.0 | 0.00 | 0.89 | 0.00 | 89 | 1003.8 |
| 20260505062011 | 13 | 270 | 4.8 | 8.0 | 0.00 | 0.89 | 0.00 | 88 | 1003.6 |
| 20260505061540 | 13 | 266 | 6.4 | 9.7 | 0.00 | 0.89 | 0.00 | 88 | 1003.6 |
| 20260505061003 | 14 | 275 | 4.8 | 9.7 | 0.00 | 0.89 | 0.00 | 88 | 1003.6 |
| 20260505060508 | 14 | 272 | 6.4 | 8.0 | 0.00 | 0.89 | 0.00 | 88 | 1003.4 |
| 20260505060020 | 14 | 271 | 6.4 | 8.0 | 0.00 | 0.89 | 0.00 | 87 | 1003.2 |
| 20260505055506 | 14 | 295 | 0.0 | 8.0 | 0.00 | 0.89 | 0.00 | 88 | 1002.9 |
| 20260505055007 | 14 | 295 | 3.2 | 8.0 | 0.00 | 0.89 | 0.00 | 87 | 1002.9 |
| 20260505054532 | 15 | 352 | 1.6 | 8.0 | 0.00 | 0.89 | 0.00 | 87 | 1002.9 |
| 20260505054012 | 15 | 311 | 0.0 | 12.9 | 0.00 | 0.89 | 0.00 | 85 | 1003.1 |
| 20260505053511 | 15 | 299 | 8.0 | 12.9 | 0.00 | 0.89 | 0.00 | 83 | 1002.9 |
| 20260505053030 | 15 | 300 | 9.7 | 11.3 | 0.00 | 0.89 | 0.00 | 83 | 1002.9 |
| 20260505052509 | 15 | 290 | 8.0 | 11.3 | 0.00 | 0.89 | 0.00 | 84 | 1002.9 |
| 20260505052008 | 15 | 295 | 8.0 | 11.3 | 0.03 | 0.89 | 0.00 | 85 | 1002.8 |
| 20260505051526 | 14 | 288 | 3.2 | 8.0 | 0.03 | 0.89 | 0.00 | 88 | 1002.6 |
| 20260505051014 | 15 | 269 | 6.4 | 8.0 | 0.03 | 0.89 | 0.00 | 89 | 1002.6 |
| 20260505050507 | 14 | 269 | 6.4 | 8.0 | 0.03 | 0.89 | 0.00 | 89 | 1002.4 |